[[{"header":{"parameterUnit":"m.s-1","parameterCategory":1,"la1":30.2991,"la2":30.254,"lo1":-89.0895,"lo2":-89.0444,"dy":0.0017,"dx":0.0017,"nx":28,"ny":28,"refTime":"2025-07-10T09:00:00:Z","depth":0,"parameterNumber":2,"parameterNumberName":"U-component_of_WINDS"},"data":[0,0,0,0,0,0,0,0,0,0,0,0,0,0,0,0,0,0,0,0,0,0,0,0,0,0,0,0,0,0,0,0,0,0,0,0,0,0,0,0,0,0,0,0,0,0,0,0,0,0,0,0,0,0,0,0,0,0,2.6167,2.6168,0,2.6283,2.6284,2.6286,2.6235,2.6232,2.6229,2.6226,2.6349,2.6355,2.636,0,0,0,0,0,0,0,0,0,0,0,0,0,2.5902,2.5907,2.6167,2.6168,2.6169,2.6283,2.6284,2.6286,2.6235,2.6232,2.6228,2.6225,2.6347,2.6354,2.6361,0,0,0,0,0,0,0,0,0,0,0,0,0,2.6018,2.5909,2.6166,2.6158,2.6158,2.6282,2.6284,2.6286,2.6236,2.6232,2.6227,2.6223,2.6344,2.6353,2.6362,2.6503,0,0,2.6389,2.6393,0,0,0,0,0,0,0,0,2.6011,2.6028,2.6158,2.6159,2.6159,2.624,2.6236,2.6359,2.6237,2.6206,2.6226,2.6221,2.6316,2.6327,2.6358,2.6508,2.6514,2.639,2.6395,2.6399,2.6402,0,0,0,0,0,0,0,2.6003,2.6022,2.6213,2.6159,2.6161,2.6149,2.616,2.6259,2.6284,2.6209,2.6205,2.622,2.6316,2.635,2.6361,2.6515,2.639,2.6397,2.6403,2.6406,2.6785,2.6789,0,0,0,0,0,0,2.5995,2.6016,2.6209,2.6216,2.6073,2.6157,2.617,2.6218,2.6283,2.6288,2.6223,2.6217,2.6337,2.6351,2.6365,2.6533,2.6399,2.6407,2.6412,2.678,2.6786,2.6791,0,0,0,0,0,0,2.599,2.6013,2.6204,2.6115,2.6139,2.6166,2.6221,2.6223,2.6257,2.6294,2.6298,2.6253,2.6334,2.6353,2.6468,2.6537,2.6411,2.6419,2.6775,2.6782,2.6788,2.6871,0,0,0,0,0,0,2.5982,2.6011,2.6065,2.6117,2.6144,2.6305,2.6225,2.6228,2.6272,2.6265,2.6323,2.6329,2.6332,2.6455,2.6477,2.6547,2.6426,2.6769,2.6778,2.6786,2.6862,2.688,2.6895,0,0,0,0,0,2.5973,2.6084,2.6068,2.6091,2.6211,2.6309,2.6325,2.6325,2.6278,2.6332,2.6355,2.6327,2.6525,2.6467,2.6492,2.6565,2.6764,2.6775,2.6785,2.6855,2.6876,2.6894,0,0,0,0,0,0,2.6041,2.6091,2.6073,2.6205,2.6253,2.63,2.6369,2.6348,2.6412,2.6403,2.6402,2.6416,2.6535,2.6561,2.6496,2.6704,2.6638,2.6654,2.6682,2.6703,2.6719,2.671,2.6434,0,0,0,0,0,2.6071,2.6146,2.6186,2.6298,2.6323,2.6342,2.6385,2.6381,2.6431,2.6452,2.6484,2.6535,2.6608,2.6657,2.6727,2.6865,2.6877,2.6928,2.6944,2.6957,2.6971,2.7045,2.7068,2.6826,2.6826,2.6825,0,0,2.6135,2.6171,2.6219,2.6313,2.635,2.6428,2.636,2.6446,2.6503,2.6465,2.6576,2.6601,2.6658,2.6785,2.6842,2.6811,2.704,2.6971,2.6981,2.6988,2.7058,2.7081,2.7102,2.6833,2.6832,2.6831,0,0,2.6291,2.6326,2.6422,2.646,2.6516,2.6527,2.6551,2.6601,2.6616,2.6726,2.6699,2.6768,2.6895,2.6936,2.6974,2.7142,2.7119,2.7165,2.7251,2.7323,2.7342,2.7359,2.7419,2.744,2.7179,2.7179,2.7179,0,2.6363,2.6479,2.6475,2.6562,2.6604,2.6571,2.6669,2.6706,2.6783,2.6813,2.6775,2.6933,2.6969,2.7105,2.7145,2.7177,2.7203,2.7159,2.734,2.7357,2.7372,2.7429,2.7452,2.7184,2.7184,2.7183,2.7183,0,2.6564,2.6645,2.6716,2.6789,2.6839,2.6931,2.6941,2.6992,2.6983,2.6999,2.7111,2.7153,2.723,2.7261,2.7255,2.7396,2.7374,2.7339,2.7273,2.7401,2.7454,2.7476,2.7192,2.719,2.7188,2.7187,0,0,2.6768,2.6836,2.6862,2.6894,2.6952,2.7015,2.7105,2.7179,2.7222,2.7276,2.7351,2.7459,2.7425,2.7468,2.7465,2.7528,2.7658,2.7485,2.7486,2.7515,2.7816,2.7842,2.7867,2.7642,2.7646,2.765,2.7811,0,2.6928,2.7085,2.7083,2.7229,2.7302,2.7271,2.735,2.7394,2.7411,2.7476,2.7494,2.757,2.752,2.7546,2.7607,2.7629,2.7718,2.7618,2.7713,2.7717,2.77,2.7895,2.7924,2.8074,2.7832,2.7835,2.7838,0,2.7135,2.7193,2.7346,2.7391,2.7422,2.7493,2.7559,2.7622,2.7672,2.7679,2.7725,2.7712,2.7804,2.7735,2.7861,2.7793,2.7831,2.7848,2.7854,2.7863,2.7785,2.791,2.8122,2.8144,2.7871,2.7868,2.7866,0,2.7268,2.7385,2.749,2.7519,2.7575,2.7625,2.7651,2.7696,2.774,2.7798,2.7826,2.7895,2.7933,2.7987,2.7993,2.7942,2.812,2.8051,2.8129,2.8129,2.8168,2.8166,2.839,2.8193,2.8193,2.8193,2.8192,0,2.7446,2.7541,2.755,2.7616,2.772,2.7717,2.7821,2.7842,2.7882,2.7951,2.7929,2.7994,2.7998,2.8065,2.807,2.8174,2.8191,2.82,2.82,2.8202,2.8201,2.8227,2.8217,2.8199,2.8197,2.8196,2.8195,0,2.7613,2.7623,2.7736,2.7779,2.7792,2.7867,2.7904,2.7966,2.7979,2.8066,2.8087,2.8108,2.8186,2.8196,2.8288,2.8291,2.8415,2.8405,2.8398,2.8397,2.8474,2.8466,2.8723,2.8756,2.8538,2.854,2.8542,0,2.7726,2.7798,2.7847,2.7891,2.7919,2.799,2.8034,2.8033,2.808,2.814,2.8195,2.827,2.833,2.8456,2.848,2.8549,2.854,2.8625,2.8551,2.8549,2.8541,2.8536,2.8543,2.864,2.8642,2.8644,2.8646,0,2.7926,2.7927,2.799,2.8055,2.8107,2.8159,2.8207,2.8245,2.825,2.8304,2.8382,2.8428,2.852,2.8594,2.8663,2.869,2.8669,2.8668,2.869,2.8693,2.8686,2.869,2.8437,2.8663,2.8661,2.866,2.8659,2.8658,2.807,2.8131,2.8175,2.8246,2.8281,2.8326,2.8386,2.8405,2.847,2.8544,2.8539,2.8625,2.8672,2.8761,2.8792,2.886,2.8832,2.8864,2.8872,2.8879,2.8887,2.8675,2.8872,2.8872,2.8872,2.8871,2.8871,0,2.8268,2.8294,2.8359,2.8426,2.8481,2.8454,2.8506,2.8555,2.863,2.8674,2.8732,2.8822,2.8893,2.8922,2.8992,2.9041,2.9033,2.9059,2.9056,2.9062,2.8908,2.8882,2.9064,2.9064,2.9064,2.9064,2.9064,2.9064,2.8378,2.8479,2.8485,2.8604,2.863,2.8712,2.8744,2.8785,2.882,2.892,2.8978,2.8996,2.9034,2.9106,2.9171,2.9177,2.9204,2.9235,2.9237,2.9093,2.9073,2.9055,2.903,2.9241,2.9241,2.9386,2.9387,2.9388]},{"header":{"parameterUnit":"m.s-1","parameterCategory":1,"la1":30.2991,"la2":30.254,"lo1":-89.0895,"lo2":-89.0444,"dy":0.0017,"dx":0.0017,"nx":28,"ny":28,"refTime":"2025-07-10T09:00:00:Z","depth":0,"parameterNumber":3,"parameterNumberName":"V-component_of_WINDS"},"data":[0,0,0,0,0,0,0,0,0,0,0,0,0,0,0,0,0,0,0,0,0,0,0,0,0,0,0,0,0,0,0,0,0,0,0,0,0,0,0,0,0,0,0,0,0,0,0,0,0,0,0,0,0,0,0,0,0,0,0.6096,0.6095,0,0.6012,0.6011,0.601,0.5911,0.591,0.5908,0.5907,0.5823,0.5822,0.5821,0,0,0,0,0,0,0,0,0,0,0,0,0,0.6171,0.617,0.6096,0.6095,0.6094,0.6012,0.6011,0.601,0.5912,0.591,0.5908,0.5906,0.5823,0.5822,0.5821,0,0,0,0,0,0,0,0,0,0,0,0,0,0.6118,0.6169,0.6096,0.6035,0.6028,0.6013,0.6011,0.601,0.5912,0.591,0.5908,0.5905,0.5824,0.5822,0.5821,0.5859,0,0,0.5817,0.5817,0,0,0,0,0,0,0,0,0.6121,0.6115,0.6045,0.6039,0.6032,0.597,0.6007,0.5959,0.5913,0.5956,0.5907,0.5904,0.5874,0.5868,0.5858,0.5855,0.5852,0.5817,0.5817,0.5816,0.5816,0,0,0,0,0,0,0,0.6125,0.6118,0.6063,0.6044,0.6036,0.6012,0.6002,0.5997,0.5929,0.5952,0.5945,0.5936,0.587,0.5859,0.5855,0.585,0.5817,0.5816,0.5815,0.5815,0.5875,0.5877,0,0,0,0,0,0,0.6137,0.6122,0.6065,0.606,0.6072,0.6012,0.6001,0.5992,0.5929,0.5917,0.5938,0.5932,0.5862,0.5857,0.5852,0.5892,0.5816,0.5815,0.5814,0.5872,0.5875,0.5878,0,0,0,0,0,0,0.6139,0.6133,0.6069,0.6089,0.6079,0.6013,0.6004,0.5992,0.5981,0.5918,0.5906,0.594,0.586,0.5853,0.5858,0.5888,0.5814,0.5813,0.587,0.5873,0.5877,0.5974,0,0,0,0,0,0,0.6142,0.6135,0.6148,0.609,0.6078,0.6077,0.6006,0.5992,0.5979,0.597,0.5916,0.5905,0.5858,0.586,0.5857,0.5885,0.5812,0.5867,0.5871,0.5875,0.5968,0.598,0.5991,0,0,0,0,0,0.6145,0.6179,0.615,0.6143,0.6094,0.6079,0.6072,0.6016,0.5982,0.5995,0.5955,0.5907,0.5885,0.5862,0.5857,0.5885,0.5865,0.587,0.5875,0.5963,0.5978,0.5991,0,0,0,0,0,0,0.6244,0.6171,0.6137,0.6153,0.6123,0.6062,0.6077,0.6034,0.6013,0.6006,0.5938,0.5927,0.594,0.5912,0.5888,0.5918,0.5868,0.5872,0.5936,0.595,0.5961,0.5968,0.5811,0,0,0,0,0,0.6267,0.6261,0.6197,0.6218,0.6204,0.6144,0.6135,0.6094,0.606,0.6047,0.6007,0.5976,0.5962,0.5954,0.5938,0.5963,0.595,0.598,0.5991,0.6001,0.6007,0.6018,0.6031,0.5895,0.5895,0.5895,0,0,0.6316,0.6276,0.6276,0.6237,0.6208,0.6203,0.6133,0.6131,0.6126,0.6047,0.6049,0.6018,0.5979,0.5994,0.5999,0.5972,0.6041,0.6008,0.6016,0.6016,0.6025,0.6038,0.6049,0.5899,0.5898,0.5897,0,0,0.6403,0.6371,0.6385,0.6358,0.6315,0.6275,0.6278,0.6223,0.62,0.62,0.614,0.6134,0.6111,0.6086,0.607,0.6146,0.6102,0.6143,0.6204,0.6216,0.6227,0.6236,0.6264,0.6275,0.6148,0.6148,0.6148,0,0.647,0.6459,0.6398,0.6399,0.6384,0.631,0.6324,0.6301,0.6256,0.6247,0.6217,0.6187,0.6155,0.6163,0.6182,0.6171,0.6173,0.6149,0.623,0.6239,0.6247,0.6272,0.6283,0.6153,0.6153,0.6152,0.6152,0,0.6543,0.6537,0.6553,0.6511,0.6497,0.6505,0.6445,0.6438,0.6399,0.6362,0.6363,0.6322,0.6297,0.6295,0.6257,0.6298,0.6283,0.6243,0.6191,0.6266,0.6289,0.6298,0.6161,0.6159,0.6158,0.6156,0,0,0.6691,0.6614,0.6621,0.6601,0.6548,0.6542,0.6546,0.652,0.6517,0.6488,0.649,0.6472,0.6434,0.6416,0.6374,0.6385,0.6448,0.6343,0.6341,0.6365,0.6492,0.6523,0.6536,0.6418,0.642,0.6421,0.6495,0,0.6769,0.6771,0.6716,0.6734,0.6728,0.6657,0.6661,0.6629,0.6594,0.6584,0.6544,0.6533,0.6484,0.6473,0.648,0.6439,0.6473,0.6433,0.642,0.642,0.6433,0.6548,0.6581,0.6653,0.6504,0.6505,0.6506,0,0.6861,0.6836,0.6854,0.68,0.6795,0.6799,0.6771,0.6762,0.6724,0.6698,0.6678,0.663,0.663,0.658,0.658,0.6554,0.6545,0.6524,0.6525,0.6523,0.6469,0.655,0.6675,0.6686,0.652,0.6519,0.6518,0,0.6968,0.6939,0.6946,0.6931,0.6868,0.6873,0.6847,0.6807,0.6795,0.677,0.6762,0.6738,0.6725,0.6707,0.6654,0.6622,0.666,0.6606,0.6639,0.6641,0.6652,0.6652,0.6779,0.6644,0.6644,0.6644,0.6644,0,0.7061,0.7075,0.6993,0.6998,0.7011,0.6947,0.6962,0.6929,0.6894,0.6891,0.6828,0.6827,0.6756,0.6746,0.6704,0.6711,0.6705,0.6685,0.6674,0.6691,0.6694,0.6685,0.6679,0.6647,0.6646,0.6646,0.6645,0,0.7184,0.713,0.7133,0.7073,0.7058,0.707,0.7019,0.7021,0.6981,0.6978,0.6974,0.6912,0.6897,0.6842,0.6814,0.6786,0.6807,0.6784,0.682,0.6813,0.685,0.6847,0.6976,0.699,0.6847,0.6848,0.6849,0,0.7248,0.7257,0.7198,0.7191,0.7168,0.7157,0.7144,0.7082,0.7071,0.7029,0.7036,0.7016,0.6997,0.6977,0.693,0.6909,0.6886,0.6932,0.6882,0.69,0.6888,0.6888,0.6889,0.6944,0.6946,0.6947,0.6949,0,0.7367,0.734,0.7323,0.7298,0.7284,0.7261,0.7234,0.7232,0.7162,0.7153,0.7138,0.7123,0.7094,0.7076,0.7046,0.702,0.6973,0.6964,0.6971,0.699,0.701,0.7,0.685,0.6962,0.6961,0.696,0.6959,0.6959,0.7463,0.7467,0.7426,0.741,0.7383,0.736,0.7358,0.7318,0.7304,0.7276,0.7239,0.7228,0.719,0.7145,0.7122,0.7113,0.7087,0.7097,0.7099,0.7103,0.7112,0.7011,0.7107,0.7107,0.7106,0.7106,0.7106,0,0.758,0.755,0.7535,0.75,0.7487,0.7443,0.7411,0.7404,0.7394,0.7363,0.7345,0.7327,0.7309,0.726,0.7237,0.7239,0.7217,0.7235,0.7235,0.723,0.7136,0.7133,0.7253,0.7253,0.7253,0.7253,0.7253,0.7253,0.7639,0.7644,0.7612,0.7604,0.7573,0.7562,0.7547,0.7525,0.7499,0.7482,0.7466,0.7434,0.7395,0.7369,0.735,0.7336,0.7331,0.7357,0.7336,0.725,0.7236,0.7223,0.7219,0.7356,0.7356,0.743,0.7431,0.7432]}]]